Location: El Bakhil
(32.7726°N, 5.5387°W)
Time: 07:17:21
(UTC+00:00)

AO-73 - Pass Details

Date: 05 August 2021
Orbit: 581 x 661 km, 97.6° (Epoch: 27 September)

Event Time Altitude Azimuth Distance (km) Brightness Sun altitude
Rises 04:33:45 0° 21° (NNE) 2,971 ? -13.2°
Reaches altitude 10° 04:36:06 10° 30° (NNE) 2,065 ? -12.7°
Maximum altitude 04:40:19 38° 98° (E) 1,008 ? -12.0°
Drops below altitude 10° 04:44:32 10° 167° (SSE) 2,071 ? -11.2°
Sets 04:46:52 0° 175° (S) 2,979 ? -10.8°
